Weather History for Crestview, FL

Change the Weather History Date:

Thursday, August 22, 2013

  Actual Average Record
Temperature  
Mean Temperature 79 °F -  
Max Temperature 88 °F - - ()
Min Temperature 70 °F - - ()
Cooling Degree Days 14    
Growing Degree Days 29 (Base 50)    
Moisture  
Dew Point 72 °F    
Average Humidity 84    
Maximum Humidity 99    
Minimum Humidity 59    
Precipitation  
Precipitation 0.00 in - - ()
Sea Level Pressure  
Sea Level Pressure 30.06 in    
Wind  
Wind Speed 4 mph (ENE)    
Max Wind Speed 12 mph    
Max Gust Speed 20 mph    
Visibility 10 miles    
Events Rain , Thunderstorm    
T = Trace of Precipitation, MM = Missing Value Source: NWS Daily Summary

Daily Weather History Graph

Daily Weather History Graph

Search for Another Location

Airport:

Trip Planner

Search our weather history database for the weather conditions in past years. The results will help you decide how hot, cold, wet, or windy it might be!

Date:

Astronomy

Aug. 22, 2013 Rise Set
Actual Time 6:16 AM CDT 7:20 PM CDT
Civil Twilight 5:51 AM CDT 7:45 PM CDT
Nautical Twilight 5:22 AM CDT 8:14 PM CDT
Astronomical Twilight 4:51 AM CDT 8:45 PM CDT
Moon 8:17 PM CDT (8/22) 7:53 AM CDT (8/22)
Length of Visible Light 13h 53m
Length of Day
13h 03m
Waning Gibbous, 96% of the Moon is Illuminated
Aug 22
Waning Gibbous
Aug 28
Last Quarter
Sep 5
New
Sep 12
First Quarter
Sep 19
Full

Hourly Weather History & Observations

Time (CDT) Temp. Heat Index Dew Point Humidity Pressure Visibility Wind Dir Wind Speed Gust Speed Precip Events Conditions
12:58 AM 70.5 °F - 70.3 °F 99% 30.12 in 10.0 mi NNE 2.3 mph - N/A   Clear
1:58 AM 70.5 °F - 70.2 °F 99% 30.09 in 10.0 mi ENE 2.3 mph - N/A   Clear
2:58 AM 70.5 °F - 70.2 °F 99% 30.09 in 10.0 mi NNE 3.5 mph - N/A   Partly Cloudy
3:58 AM 70.2 °F - 69.8 °F 99% 30.10 in 10.0 mi NE 2.3 mph - N/A   Clear
4:58 AM 70.0 °F - 69.6 °F 99% 30.11 in 10.0 mi North 4.6 mph - N/A   Clear
5:58 AM 70.0 °F - 69.6 °F 99% 30.10 in 10.0 mi NNE 4.6 mph - N/A   Clear
6:58 AM 70.3 °F - 70.2 °F 99% 30.10 in 10.0 mi NNE 3.5 mph - N/A   Clear
7:58 AM 73.6 °F - 73.0 °F 98% 30.12 in 10.0 mi ENE 4.6 mph - N/A   Clear
8:55 AM 78.8 °F - 73.6 °F 84% 30.13 in 10.0 mi NE 4.6 mph - N/A   Scattered Clouds
9:55 AM 83.3 °F 90.2 °F 74.3 °F 74% 30.12 in 10.0 mi East 6.9 mph - N/A   Scattered Clouds
10:55 AM 85.5 °F 92.6 °F 73.2 °F 67% 30.12 in 10.0 mi East 10.4 mph - N/A   Mostly Cloudy
11:55 AM 86.9 °F 94.5 °F 73.6 °F 64% 30.10 in 10.0 mi East 9.2 mph - N/A   Mostly Cloudy
12:55 PM 88.5 °F 95.8 °F 72.7 °F 59% 30.06 in 10.0 mi NE 5.8 mph - N/A   Mostly Cloudy
1:56 PM 88.0 °F 95.6 °F 72.9 °F 61% 30.04 in 10.0 mi NNE 4.6 mph - N/A   Mostly Cloudy
2:55 PM 87.6 °F 95.2 °F 73.0 °F 62% 30.04 in 10.0 mi East 8.1 mph - N/A   Mostly Cloudy
3:55 PM 83.5 °F 91.9 °F 75.9 °F 78% 30.01 in 10.0 mi SSE 11.5 mph - N/A   Mostly Cloudy
4:22 PM 82.4 °F 88.2 °F 73.4 °F 74% 30.01 in 10.0 mi SE 10.4 mph 19.6 mph N/A Thunderstorm Mostly Cloudy
4:41 PM 80.6 °F 85.4 °F 73.4 °F 79% 30.02 in 10.0 mi East 11.5 mph - N/A Rain , Thunderstorm Light Rain
4:55 PM 78.4 °F - 72.5 °F 82% 30.01 in 10.0 mi NNE 5.8 mph - 0.00 in Rain , Thunderstorm Light Rain
5:03 PM 78.8 °F - 73.4 °F 83% 30.00 in 10.0 mi Variable 3.5 mph - N/A Thunderstorm Thunderstorm
5:18 PM 80.6 °F 84.6 °F 71.6 °F 74% 29.99 in 10.0 mi Variable 2.3 mph - N/A   Mostly Cloudy
5:30 PM 82.4 °F 87.2 °F 71.6 °F 70% 29.99 in 10.0 mi ENE 4.6 mph - N/A   Light Drizzle
5:42 PM 80.6 °F 84.6 °F 71.6 °F 74% 30.00 in 10.0 mi ESE 3.5 mph - N/A   Mostly Cloudy
5:55 PM 80.8 °F 85.1 °F 72.3 °F 75% 30.01 in 10.0 mi ESE 2.3 mph - 0.00 in   Mostly Cloudy
6:55 PM 78.6 °F - 73.6 °F 84% 30.01 in 10.0 mi ESE 2.3 mph - N/A   Mostly Cloudy
7:55 PM 76.6 °F - 74.3 °F 92% 30.03 in 10.0 mi East 2.3 mph - N/A   Mostly Cloudy
8:55 PM 75.4 °F - 73.9 °F 95% 30.04 in 10.0 mi East 3.5 mph - N/A   Mostly Cloudy
9:55 PM 74.5 °F - 73.9 °F 98% 30.05 in 10.0 mi ENE 3.5 mph - N/A   Scattered Clouds
10:55 PM 73.8 °F - 73.6 °F 99% 30.05 in 10.0 mi ENE 3.5 mph - N/A   Scattered Clouds
11:55 PM 74.1 °F - 73.8 °F 99% 30.03 in 10.0 mi ESE 3.5 mph - N/A   Partly Cloudy